Wind_Speed
20 17 16 17 18 17 16 9 4 24 19 4 3 8 5 2 4 6 3 2 3 4 4 5 6 5 3 3 5 6 5 2 4 2 3 2 3 2 3 5 8 4 6 6
23 21 19 17 20 20 13 9 6 17 19 6 8 6 7 8 6 8 6 4 3 1 6 2 10 4 3 2 5 5 2 2 3 3 1 1 2 1 2 2 1 9 9 3
25 23 20 18 21 25 12 8 5 6 11 3 5 10 11 10 10 6 4 4 3 3 5 2 10 10 4 5 4 6 1 3 5 5 3 4 4 7 4 2 3 4 9 13
25 24 19 20 27 30 12 7 5 10 8 11 10 9 10 14 8 7 7 6 5 4 5 4 6 6 10 5 0 3 1 3 2 4 4 2 2 6 7 10 10 6 9 11
29 26 21 22 26 33 11 7 5 9 4 15 14 9 9 13 9 8 9 4 6 10 4 3 8 10 7 5 3 3 2 3 1 2 3 4 8 9 10 11 12 14 15 16
32 26 22 24 32 26 7 6 4 6 11 13 11 12 9 13 10 2 4 6 6 9 9 11 10 9 7 7 6 4 3 4 3 2 2 1 7 5 10 9 7 7 11 12
30 24 27 26 27 23 8 5 4 5 6 12 12 13 12 12 11 6 8 8 6 5 11 13 11 11 9 7 7 3 6 6 3 3 3 4 6 5 7 3 9 5 8 12
24 24 27 26 26 26 20 6 3 3 4 8 10 11 9 10 11 10 9 6 5 9 7 6 7 5 6 5 5 5 4 3 3 3 5 4 4 3 3 3 2 6 9 10
22 21 25 21 22 22 21 11 6 2 2 4 8 9 15 10 7 7 5 6 7 4 2 2 4 4 5 6 5 4 6 2 3 3 3 4 5 7 4 1 6 6 7 8
20 21 20 19 19 19 14 10 9 2 4 4 7 5 8 6 4 4 6 5 4 2 3 2 2 3 0 6 6 5 5 2 5 5 3 5 1 10 3 5 5 7 8 10
23 23 19 18 19 17 15 11 10 5 5 5 4 4 5 6 5 5 7 5 2 3 3 2 3 3 2 4 2 1 4 5 4 3 3 2 13 1 4 5 6 6 9 11
24 22 20 18 17 16 15 9 12 12 6 9 16 14 9 7 4 8 4 2 3 2 2 2 3 3 3 4 4 2 3 3 2 4 4 5 8 6 4 4 7 8 9 9
22 19 17 16 16 16 13 11 19 18 15 14 8 8 11 9 7 8 3 3 4 3 3 2 2 3 2 4 3 4 4 5 2 5 5 7 6 7 8 8 9 9 9 10
21 16 14 13 13 15 13 22 20 15 10 5 6 8 12 13 9 7 6 13 10 8 4 3 2 2 2 2 4 0 3 5 6 5 8 9 7 6 7 9 10 11 11 11
19 16 13 13 14 16 18 19 16 14 5 5 9 11 14 14 13 15 13 10 7 4 3 2 2 3 3 3 2 3 1 3 3 2 9 8 9 8 8 10 10 11 11 12
20 18 18 21 22 23 20 8 9 15 19 9 4 6 5 10 11 13 11 7 6 4 3 3 3 2 1 3 2 3 4 2 5 6 8 14 14 11 10 11 11 11 12 11
20 18 16 15 17 17 7 7 14 17 15 7 5 5 3 7 4 5 6 7 5 4 3 2 2 3 0 1 2 11 8 7 12 17 20 15 13 10 12 13 13 12 12 11
20 17 15 15 15 13 13 18 16 12 8 6 4 3 6 5 3 3 3 2 2 4 2 2 2 5 1 2 9 14 13 12 14 10 4 12 18 16 14 12 12 12 11 11
21 18 15 14 11 6 10 17 14 9 5 4 3 6 4 6 3 3 2 1 2 0 1 2 3 3 3 1 16 16 16 14 14 9 13 19 17 14 12 12 11 11 11 10
21 17 4 4 6 18 13 5 3 4 5 5 3 3 4 6 4 3 3 1 1 2 2 4 2 2 2 5 11 14 14 11 18 18 17 17 16 14 12 11 9 10 10 11
10 3 4 15 10 4 4 4 3 2 3 3 4 4 8 3 3 3 1 2 1 1 3 3 2 3 5 7 12 14 13 14 14 9 12 13 14 15 14 13 12 12 12 12
4 12 13 5 3 3 4 3 2 1 3 3 5 8 6 4 2 2 2 1 1 1 5 2 3 3 10 13 14 13 12 13 11 10 13 13 13 13 13 13 13 13 13 13
14 5 4 2 4 3 2 4 3 3 5 5 8 4 3 3 2 4 2 2 0 2 3 2 2 9 12 14 14 13 11 13 13 14 14 15 14 13 13 15 15 15 14 13
5 3 4 3 2 2 1 3 4 4 5 11 8 4 2 2 2 1 2 2 1 2 2 0 4 14 15 13 13 14 13 13 15 16 16 15 14 15 15 16 16 15 13 12
4 2 3 2 3 3 4 5 6 4 7 6 6 5 2 2 3 1 1 2 3 3 1 2 6 16 16 15 15 15 15 15 15 16 16 16 15 17 19 18 16 14 12 10
3 4 4 3 9 8 9 10 9 6 4 4 3 2 2 2 2 3 3 2 2 2 2 4 12 16 16 16 15 14 14 15 17 17 17 18 19 19 19 17 15 12 10 8
3 4 7 8 9 7 5 5 4 5 1 2 1 2 2 3 2 2 2 2 2 2 3 6 11 17 19 17 15 15 16 16 17 18 20 21 20 18 16 15 13 12 10 8
Wind_Direction
217 219 202 182 175 166 160 157 139 177 160 166 208 212 198 178 202 224 204 116 168 145 277 190 136 185 50 9 47 131 206 273 146 114 25 286 282 277 270 251 220 255 295 285
212 204 203 207 193 180 159 138 120 169 175 195 201 210 205 199 224 206 205 149 204 197 204 154 129 152 316 184 180 214 199 141 185 216 198 27 238 128 133 140 238 253 261 268
213 203 208 211 202 182 172 167 146 156 196 213 223 196 201 199 213 196 200 157 124 252 166 225 150 148 147 157 142 64 219 179 268 253 57 102 174 173 164 169 225 286 244 291
201 200 195 202 190 178 175 185 186 176 190 200 206 200 201 194 177 193 195 154 174 203 175 123 140 133 130 104 75 66 38 182 186 87 110 133 193 213 221 238 247 254 288 299
196 190 186 189 192 182 184 174 170 179 202 183 195 182 213 198 173 178 185 208 200 176 216 224 177 156 171 167 119 103 5 128 155 231 245 258 264 255 251 250 259 265 274 277
188 185 185 184 177 190 191 208 201 191 149 185 187 197 220 199 166 139 194 236 160 139 106 93 96 97 98 120 143 124 136 141 163 194 139 255 254 276 263 244 250 288 284 337
188 186 180 181 192 195 200 197 177 190 172 180 196 189 205 181 201 166 136 138 141 118 120 102 90 85 81 85 75 111 154 154 171 148 182 224 79 41 48 359 307 341 318 335
187 186 178 182 192 197 206 214 209 226 150 183 176 183 147 134 134 122 119 77 106 145 145 134 126 123 137 98 76 181 187 160 147 209 213 85 159 41 359 353 308 22 341 328
174 178 177 182 188 197 207 224 220 251 168 131 165 152 162 151 146 121 103 87 130 138 134 169 183 173 143 159 130 98 171 220 236 179 248 219 75 5 337 213 236 23 337 305
172 171 169 179 183 186 192 225 221 183 106 102 146 143 152 142 137 135 139 151 148 147 149 146 157 138 297 152 169 166 141 161 214 203 255 105 3 326 337 228 45 16 13 344
164 165 170 171 172 170 178 224 202 166 110 83 83 95 123 127 165 164 143 156 164 140 160 175 136 176 110 128 38 96 180 187 189 191 231 170 357 155 314 8 58 76 69 65
159 159 166 168 169 167 191 185 174 146 107 113 98 96 108 126 148 140 137 86 107 122 130 170 135 145 158 150 132 125 184 329 64 354 58 76 45 68 35 50 98 88 98 97
158 157 160 164 173 181 181 169 151 120 111 89 96 61 87 94 109 137 149 147 135 133 120 104 87 120 204 158 125 140 145 171 101 183 99 99 88 79 77 85 97 106 108 105
161 160 164 169 174 173 172 159 144 134 112 97 70 78 83 73 77 103 123 132 118 115 102 88 101 111 291 103 101 208 54 163 142 89 124 119 96 107 111 106 106 111 110 106
163 163 160 157 153 160 164 159 153 149 110 125 120 90 80 85 91 94 93 100 110 118 115 98 84 103 135 106 161 117 202 148 194 95 147 97 120 130 127 121 116 115 113 108
148 138 134 139 141 142 141 104 118 129 122 109 119 106 79 92 84 82 76 78 69 78 76 80 100 104 260 157 139 127 114 116 141 145 125 122 126 123 127 123 122 118 117 113
141 140 145 151 155 159 161 140 141 137 130 102 120 124 138 128 86 70 61 54 58 56 94 85 103 134 248 125 150 154 134 124 124 129 123 118 130 133 126 123 123 121 118 116
143 135 128 119 129 137 113 127 137 132 114 94 113 107 154 160 140 110 40 69 64 40 74 132 159 149 221 194 132 147 145 138 143 141 120 141 134 130 130 129 130 128 123 122
140 135 126 116 109 101 115 109 100 90 107 106 108 148 149 155 119 104 106 43 103 99 184 142 215 155 215 163 160 163 166 166 170 146 136 137 137 139 138 139 138 131 127 123
136 132 100 88 111 123 113 83 72 45 41 56 89 128 123 164 169 132 152 229 143 188 98 132 255 238 124 142 166 170 169 167 155 148 154 153 149 149 144 139 135 135 130 124
142 102 77 122 120 81 62 71 49 31 93 65 100 129 137 148 168 130 248 141 144 226 123 235 182 227 178 168 154 157 152 154 156 162 169 164 159 154 147 139 134 133 135 135
156 123 108 85 64 68 81 63 97 100 109 116 141 126 118 122 133 142 179 136 179 240 144 205 227 116 146 149 148 149 151 156 160 148 151 152 151 150 150 147 147 148 143 138
116 75 72 28 22 77 105 145 131 140 144 148 149 123 106 125 116 88 138 185 108 139 218 221 49 146 153 151 150 152 159 170 168 156 157 158 157 157 159 154 149 147 146 138
61 64 81 25 76 85 93 93 102 94 124 135 129 97 97 112 95 91 184 91 239 248 253 138 146 171 162 155 154 158 160 167 169 169 170 167 164 156 150 148 144 145 146 147
84 76 75 80 89 93 99 94 102 98 131 122 114 100 105 89 110 135 133 178 219 246 358 73 149 163 161 161 164 166 165 162 164 166 166 163 159 155 148 145 144 146 146 137
68 57 115 94 120 105 96 86 81 96 122 104 73 109 121 110 117 167 210 230 216 96 67 111 148 159 162 167 167 169 170 171 170 166 162 157 153 151 148 144 143 140 140 148
57 72 66 74 75 81 81 83 75 87 97 87 81 110 85 123 184 201 207 257 32 72 121 133 159 163 167 170 170 171 172 170 166 161 156 153 151 148 146 144 144 147 147 145
Height
1398 1401 1403 1405 1407 1410 1412 1415 1418 1423 1427 1432 1431 1421 1419 1420 1419 1421 1422 1423 1422 1424 1419 1417 1420 1421 1420 1427 1424 1426 1431 1423 1422 1428 1432 1432 1428 1424 1421 1422 1418 1419 1422 1411
1391 1394 1399 1402 1404 1407 1411 1415 1419 1422 1424 1420 1419 1419 1417 1418 1418 1418 1420 1421 1424 1420 1420 1418 1422 1429 1431 1430 1432 1432 1426 1422 1429 1428 1431 1432 1430 1433 1434 1434 1434 1426 1423 1414
1386 1388 1394 1398 1400 1405 1409 1412 1414 1420 1422 1422 1417 1416 1414 1416 1417 1417 1417 1417 1424 1421 1420 1417 1419 1425 1431 1431 1430 1429 1428 1425 1421 1414 1421 1426 1435 1436 1436 1439 1437 1426 1423 1418
1379 1384 1388 1393 1398 1402 1407 1407 1405 1404 1411 1415 1416 1414 1410 1410 1413 1416 1417 1418 1422 1425 1420 1419 1421 1425 1428 1432 1433 1431 1430 1426 1430 1431 1434 1434 1434 1434 1435 1436 1433 1437 1424 1428
1376 1381 1384 1390 1393 1399 1403 1402 1401 1405 1401 1408 1413 1412 1407 1405 1410 1411 1414 1415 1415 1419 1421 1420 1422 1424 1424 1425 1432 1432 1434 1433 1433 1433 1434 1436 1435 1432 1433 1433 1433 1432 1432 1429
1372 1378 1381 1386 1390 1395 1398 1399 1399 1399 1401 1405 1409 1404 1403 1404 1409 1414 1415 1414 1416 1418 1423 1423 1427 1427 1429 1429 1430 1433 1434 1436 1436 1431 1437 1438 1434 1431 1428 1429 1430 1432 1431 1432
1369 1374 1379 1384 1389 1393 1396 1397 1399 1399 1396 1399 1400 1400 1402 1403 1406 1411 1415 1416 1417 1426 1425 1426 1428 1430 1431 1432 1434 1434 1436 1437 1439 1434 1439 1437 1439 1443 1442 1444 1440 1445 1445 1445
1367 1372 1376 1382 1387 1391 1394 1396 1398 1397 1394 1394 1398 1400 1402 1406 1410 1413 1415 1419 1422 1424 1425 1423 1425 1430 1431 1437 1438 1438 1437 1436 1438 1436 1429 1430 1445 1448 1452 1450 1443 1452 1451 1450
1366 1371 1375 1380 1385 1389 1392 1394 1396 1397 1396 1397 1398 1401 1402 1404 1408 1414 1419 1421 1423 1424 1424 1422 1419 1422 1419 1429 1435 1439 1440 1439 1436 1437 1434 1428 1445 1450 1451 1454 1442 1454 1454 1451
1366 1370 1374 1379 1384 1388 1390 1393 1394 1396 1396 1401 1402 1400 1403 1407 1409 1411 1418 1421 1423 1424 1422 1422 1421 1422 1423 1423 1427 1436 1439 1443 1437 1433 1430 1440 1454 1452 1452 1443 1449 1455 1454 1451
1366 1370 1375 1379 1384 1387 1390 1391 1392 1395 1397 1401 1402 1403 1405 1407 1409 1409 1418 1420 1421 1421 1419 1417 1425 1421 1424 1429 1439 1433 1432 1434 1432 1430 1434 1434 1453 1449 1447 1456 1456 1457 1456 1455
1367 1371 1376 1379 1383 1386 1390 1390 1392 1394 1398 1404 1404 1405 1407 1408 1409 1411 1416 1417 1418 1420 1418 1420 1422 1422 1428 1426 1429 1441 1438 1443 1436 1444 1446 1456 1458 1458 1458 1457 1458 1458 1458 1458
1368 1372 1376 1379 1382 1385 1387 1389 1392 1395 1400 1406 1409 1411 1411 1410 1410 1411 1414 1418 1419 1420 1421 1422 1422 1422 1422 1421 1430 1436 1441 1443 1441 1446 1454 1456 1459 1460 1460 1459 1459 1459 1460 1460
1370 1373 1376 1379 1381 1383 1387 1389 1391 1394 1398 1406 1415 1413 1413 1412 1411 1411 1412 1413 1417 1420 1422 1422 1422 1421 1428 1428 1432 1429 1436 1439 1442 1451 1456 1458 1460 1461 1461 1461 1462 1462 1463 1463
1371 1374 1377 1378 1380 1384 1388 1390 1392 1394 1398 1405 1415 1416 1416 1416 1416 1415 1417 1419 1421 1422 1422 1423 1424 1426 1429 1433 1433 1434 1440 1441 1440 1439 1450 1453 1459 1462 1462 1463 1464 1465 1465 1467
1373 1375 1377 1380 1382 1385 1389 1392 1395 1395 1396 1404 1412 1420 1421 1420 1420 1421 1421 1422 1423 1423 1424 1426 1428 1430 1430 1429 1432 1443 1444 1445 1446 1449 1452 1454 1459 1462 1463 1464 1465 1466 1468 1469
1374 1377 1380 1382 1384 1386 1388 1391 1395 1396 1398 1403 1414 1418 1422 1422 1423 1424 1425 1424 1425 1425 1427 1427 1427 1429 1430 1431 1430 1442 1445 1447 1448 1451 1453 1458 1461 1463 1465 1466 1467 1469 1470 1471
1376 1379 1382 1384 1386 1388 1391 1392 1395 1398 1399 1403 1410 1419 1422 1423 1424 1425 1426 1426 1427 1428 1429 1430 1429 1432 1431 1430 1438 1442 1446 1449 1452 1454 1454 1456 1460 1463 1466 1467 1469 1470 1471 1472
1379 1382 1385 1387 1389 1391 1394 1395 1397 1398 1402 1404 1409 1411 1417 1423 1425 1426 1427 1428 1428 1431 1428 1428 1430 1429 1429 1431 1436 1441 1445 1448 1450 1454 1456 1458 1460 1463 1466 1468 1469 1470 1471 1472
1381 1385 1387 1390 1392 1393 1395 1399 1399 1400 1402 1405 1410 1414 1417 1422 1424 1427 1428 1429 1426 1424 1428 1431 1430 1426 1432 1434 1437 1441 1444 1447 1450 1453 1456 1458 1461 1463 1465 1467 1469 1470 1471 1472
1384 1385 1389 1392 1393 1395 1397 1400 1402 1405 1406 1409 1413 1413 1415 1422 1422 1422 1427 1424 1426 1423 1425 1427 1426 1424 1432 1435 1437 1441 1444 1447 1450 1453 1455 1458 1459 1461 1463 1466 1468 1470 1472 1473
1385 1386 1390 1393 1396 1397 1399 1404 1407 1405 1405 1412 1412 1415 1417 1421 1422 1422 1427 1423 1427 1421 1428 1428 1420 1428 1432 1435 1438 1441 1444 1447 1450 1452 1455 1457 1459 1461 1462 1464 1466 1469 1471 1473
1387 1389 1393 1396 1400 1400 1399 1405 1405 1405 1408 1411 1413 1416 1418 1421 1422 1425 1425 1427 1422 1428 1424 1416 1420 1429 1433 1435 1438 1441 1443 1446 1449 1451 1454 1456 1458 1460 1463 1464 1467 1469 1471 1473
1390 1394 1399 1400 1401 1402 1402 1401 1402 1408 1410 1411 1414 1417 1417 1421 1422 1424 1424 1427 1428 1421 1417 1413 1423 1428 1432 1435 1438 1440 1443 1445 1448 1450 1453 1455 1458 1460 1463 1465 1467 1469 1472 1474
1394 1396 1400 1402 1405 1405 1405 1406 1407 1410 1411 1413 1415 1417 1418 1421 1424 1424 1426 1426 1420 1414 1411 1418 1423 1428 1431 1434 1437 1440 1443 1445 1448 1450 1453 1456 1458 1460 1462 1465 1468 1470 1472 1473
1397 1401 1402 1405 1404 1406 1408 1409 1410 1412 1414 1414 1415 1417 1418 1420 1420 1423 1421 1417 1411 1413 1419 1423 1425 1428 1431 1434 1438 1441 1443 1446 1449 1451 1454 1456 1459 1462 1464 1466 1469 1471 1473 1475
1401 1405 1405 1406 1407 1409 1411 1412 1414 1415 1415 1415 1416 1417 1418 1421 1419 1419 1418 1415 1417 1421 1423 1424 1426 1429 1432 1435 1438 1441 1444 1446 1449 1452 1454 1457 1460 1463 1466 1468 1470 1473 1475 1476